Location: ???? ????
(31.2831°N, 45.5190°E)
Time: 16:08:00
(UTC+00:00)

Tiangong - Visible Passes

Search period start: 26 September 2021 00:00
Search period end: 06 October 2021 00:00
Orbit: 382 x 385 km, 41.5° (Epoch: 26 September)

Date Brightness Start Highest point End Pass type
(mag) Time Alt. Az. Time Alt. Az. Time Alt. Az.
26 Sep 3.1 00:55:30 28° E 00:55:30 28° E 00:57:17 10° ENE visible
27 Sep 1.7 01:30:54 40° NW 01:31:07 41° NNW 01:34:08 10° NE visible
28 Sep 4.5 00:33:59 12° ENE 00:33:59 12° ENE 00:34:18 10° ENE visible
28 Sep 3.1 02:06:12 11° WNW 02:08:18 18° NNW 02:10:35 10° NNE visible
29 Sep 3.2 01:09:13 21° NNE 01:09:13 21° NNE 01:10:52 10° NE visible
30 Sep 3.4 01:44:24 13° NNW 01:45:28 15° N 01:47:20 10° NNE visible
01 Oct 4.3 00:47:22 11° NNE 00:47:22 11° NNE 00:47:33 10° NNE visible
01 Oct 3.6 02:21:17 10° NNW 02:22:53 13° N 02:24:29 10° NNE visible
02 Oct 3.6 01:22:30 13° N 01:22:38 13° N 01:24:13 10° NNE visible
03 Oct 3.6 01:58:10 10° NNW 02:00:03 15° N 02:01:56 10° NE visible
04 Oct 4.0 01:00:36 12° NNE 01:00:36 12° NNE 01:01:23 10° NNE visible
05 Oct 3.3 01:35:48 15° NNW 01:37:08 18° NNE 01:39:26 10° ENE visible
